Wind_Speed
39 40 40 41 43 45 44 44 44 46 47 49 51 55 58 60 64 68 75 81 74 63 65 67 40 37 41 37 37 40 33 37 33 29 53 70 80 91 86 87 80 74 71
40 40 41 42 45 44 42 43 45 46 47 50 52 55 57 60 65 70 76 83 64 60 60 59 34 36 39 35 33 33 37 31 30 26 52 69 81 77 86 84 79 76 73
40 41 41 44 45 43 41 44 45 46 47 50 53 55 57 60 65 71 76 82 58 59 58 53 32 37 37 36 34 33 26 30 20 26 51 68 79 71 82 85 79 77 73
41 41 43 45 44 42 42 43 45 47 48 50 53 55 57 60 66 71 78 78 53 56 54 47 31 34 33 33 28 25 25 17 19 38 48 75 80 80 83 76 77 76 73
41 42 44 45 44 41 42 44 47 47 48 49 52 54 55 60 66 72 80 76 50 53 51 41 31 30 31 29 22 21 19 11 9 39 49 63 59 74 81 68 74 71 78
41 43 43 44 44 42 43 45 46 46 48 49 51 53 55 62 66 73 81 70 50 53 47 37 29 26 31 23 23 16 25 24 5 40 31 52 69 71 81 83 76 81 77
42 43 43 44 42 42 43 45 45 45 46 49 51 52 57 63 69 76 81 62 50 54 46 32 25 21 20 18 10 14 9 4 6 28 43 49 67 76 79 81 74 78 75
41 42 43 44 42 42 43 46 46 45 45 48 49 52 58 65 71 77 79 55 54 53 45 30 24 20 19 15 10 16 8 7 8 28 47 48 60 74 64 75 74 75 72
43 43 43 43 43 41 43 44 46 44 45 47 48 54 60 66 73 79 71 54 57 48 46 31 25 19 18 13 13 21 14 11 17 18 39 34 59 71 78 74 74 73 71
44 42 42 43 43 42 45 48 45 42 43 44 49 56 61 67 75 77 61 57 55 49 47 29 25 20 18 17 17 13 15 14 27 24 44 45 55 59 76 73 75 68 69
42 43 43 44 41 43 44 45 40 42 43 44 50 56 63 72 79 69 59 60 56 56 36 26 26 20 18 15 23 18 15 17 31 47 41 38 59 52 74 70 75 72 67
43 43 43 43 42 43 43 39 39 40 41 44 50 57 65 73 76 60 59 60 57 47 20 26 25 20 17 15 27 24 17 23 30 39 45 39 50 58 63 71 75 70 65
43 43 45 41 40 41 41 37 38 39 40 45 52 57 63 76 64 58 59 54 56 30 19 27 22 19 18 13 19 25 20 25 36 42 48 50 46 49 62 73 75 72 67
44 45 42 37 38 38 37 36 37 37 40 46 51 57 64 71 61 57 52 49 46 19 25 25 21 19 18 16 19 27 23 29 42 41 54 43 54 52 56 67 72 71 70
45 42 37 37 39 39 36 35 35 36 41 46 50 57 68 62 56 51 47 46 38 15 28 27 22 18 19 15 25 28 27 34 36 46 46 53 52 44 48 63 71 71 75
42 42 36 37 39 39 34 33 33 35 42 45 51 58 63 54 48 47 44 44 33 17 30 27 22 19 18 20 27 30 30 29 39 47 47 61 45 44 53 61 69 74 76
38 37 34 38 37 34 32 31 32 38 41 45 52 61 60 47 47 45 41 41 31 21 31 28 23 20 20 22 28 32 37 38 40 43 46 48 57 48 64 65 70 79 77
36 36 36 37 33 31 29 31 32 37 42 48 53 63 54 43 46 48 42 38 27 26 32 29 24 21 19 23 25 33 34 42 47 40 46 52 43 53 71 68 68 69 76
36 36 38 34 32 31 29 30 33 38 42 48 54 60 49 44 45 48 43 32 22 31 35 31 26 24 22 29 36 32 31 44 49 50 51 46 41 58 67 73 67 69 72
36 37 36 31 34 29 27 30 34 37 43 48 57 56 46 43 45 47 41 27 19 36 39 33 29 26 28 32 35 38 37 43 54 53 51 49 45 50 55 61 71 60 75
38 38 32 31 33 25 27 30 33 38 43 49 61 52 45 41 45 45 38 27 19 41 43 37 33 28 29 35 39 46 42 35 56 53 53 56 47 46 51 57 65 76 76
36 31 28 30 26 24 26 30 34 39 45 53 57 45 44 42 45 43 35 23 18 46 46 41 35 28 31 37 42 44 32 37 51 57 57 55 55 50 56 55 51 61 65
28 26 29 28 20 23 27 29 35 40 46 52 49 41 40 43 45 42 31 18 19 50 49 45 37 33 30 38 41 45 46 47 56 54 54 65 61 48 58 57 56 55 81
24 27 29 18 18 23 26 31 36 41 47 48 43 39 40 43 44 41 26 15 21 53 50 47 40 36 31 36 43 42 46 53 54 54 59 69 61 46 52 58 59 63 72
27 29 17 15 21 23 27 32 37 44 45 43 37 38 42 43 44 40 23 16 26 56 52 47 40 37 32 36 42 46 52 58 56 55 55 57 54 50 51 55 61 57 78
29 15 11 19 22 25 28 34 40 43 42 35 35 37 41 44 45 39 20 19 30 58 54 47 40 38 34 38 42 47 53 58 56 54 55 56 59 56 50 54 51 49 76
Wind_Direction
275 278 282 286 292 296 298 297 299 301 302 305 308 312 314 315 317 319 322 327 329 320 322 326 305 292 304 308 302 308 315 306 311 262 209 197 195 193 198 196 197 199 204
275 279 282 289 294 298 299 300 301 302 303 307 310 314 314 317 317 321 325 331 323 320 321 325 297 300 310 300 304 308 312 312 299 253 202 191 181 188 194 194 196 196 200
276 279 284 290 294 299 299 302 301 303 304 309 311 314 315 316 319 323 328 332 321 321 321 323 294 300 305 309 309 293 291 322 299 228 191 184 179 185 193 191 192 195 197
276 279 284 290 295 298 301 302 303 305 305 309 312 314 315 317 320 325 328 332 319 321 320 320 294 301 301 304 302 299 290 278 296 202 181 181 185 188 188 190 192 195 196
275 279 284 291 296 298 303 303 304 304 306 309 313 314 315 317 322 326 327 330 318 320 320 314 293 296 299 308 301 301 302 188 193 183 166 174 187 189 187 185 196 197 196
274 278 285 291 297 300 304 305 305 304 307 311 313 314 316 319 322 324 326 329 319 320 319 309 287 287 299 294 298 295 153 155 193 183 189 177 187 187 188 189 190 196 194
272 278 286 291 297 301 305 303 303 306 309 312 312 315 318 320 322 325 327 326 320 319 317 303 278 288 290 292 268 230 194 221 202 202 195 190 183 186 191 194 185 198 194
273 278 285 291 297 303 302 301 303 306 309 311 314 316 320 320 324 326 327 325 321 318 315 294 265 280 280 272 230 220 200 164 225 212 189 175 191 183 183 196 195 194 192
273 278 285 293 298 299 298 305 305 304 310 313 316 318 319 323 326 327 325 324 320 315 313 290 249 263 266 250 214 218 229 221 179 211 225 183 188 188 193 194 196 192 192
271 280 287 292 296 297 296 302 303 307 312 314 317 319 322 326 325 327 324 323 320 314 309 276 237 248 255 235 207 214 228 227 183 176 198 180 177 187 195 196 193 193 191
272 280 285 292 295 296 297 302 302 309 312 314 319 320 324 327 326 326 325 325 320 317 301 249 228 239 246 247 209 191 208 228 198 186 181 185 192 193 190 194 196 195 188
273 279 286 290 294 297 298 298 304 309 311 315 318 321 326 327 326 327 327 326 324 320 275 220 219 230 232 228 199 187 194 208 208 201 198 196 181 188 193 195 193 190 189
273 278 285 287 292 296 297 299 306 307 312 317 320 325 326 327 326 328 329 327 329 315 221 209 213 229 227 232 208 183 186 210 196 198 198 195 186 181 191 196 192 191 190
273 278 279 283 290 298 295 300 304 308 314 319 323 325 326 326 327 328 329 328 331 300 203 210 215 226 232 227 228 178 180 202 199 193 192 199 182 181 187 193 191 189 185
273 270 274 282 288 292 293 298 304 310 314 321 324 327 327 326 327 332 329 330 330 262 204 210 217 219 235 245 201 175 178 193 204 196 187 181 179 188 186 191 188 186 185
269 267 275 283 288 287 293 298 304 310 317 323 325 327 329 326 331 333 329 330 328 233 208 215 220 221 223 229 208 182 171 191 201 196 186 181 178 186 185 192 188 187 185
269 265 274 285 286 287 293 300 305 311 320 321 324 324 328 325 332 334 327 328 323 219 207 216 217 220 226 226 202 178 175 192 205 196 188 174 181 187 182 186 187 188 185
268 269 278 281 282 288 295 300 305 312 319 322 326 327 326 324 330 334 328 322 315 210 206 212 211 226 224 223 195 166 182 194 198 197 197 177 175 183 185 182 186 188 185
269 273 279 279 282 290 294 298 306 313 316 324 326 329 326 323 326 332 328 319 302 209 208 211 209 211 208 205 173 172 181 196 195 192 197 204 191 178 186 188 193 190 190
267 276 277 279 282 287 292 298 308 315 320 326 326 328 323 321 324 331 327 313 286 209 209 210 207 210 197 195 184 179 179 185 191 189 194 196 195 179 184 191 198 195 187
270 272 272 278 282 288 291 302 312 317 324 328 329 326 319 318 325 329 323 304 271 207 207 207 205 205 193 183 182 189 197 197 189 195 197 190 193 183 182 193 201 187 187
264 266 270 279 283 284 295 307 314 320 326 332 328 321 318 320 325 328 325 300 254 204 203 206 204 196 193 180 177 177 190 203 192 190 195 198 184 184 192 199 202 197 185
256 264 273 275 279 289 301 309 317 323 329 330 323 319 318 321 327 330 326 292 235 199 200 204 204 198 188 180 180 188 188 193 190 194 195 194 186 180 192 196 200 204 191
260 268 269 272 283 295 304 312 318 326 329 327 320 320 319 322 329 333 323 271 220 195 199 203 202 199 191 181 183 191 192 191 192 196 196 195 195 187 188 195 200 202 200
267 264 263 278 290 300 308 315 323 327 327 321 320 321 320 324 333 334 316 247 208 195 199 202 204 200 192 180 187 190 192 191 194 195 195 197 202 187 189 195 201 204 194
264 251 275 288 297 307 314 320 325 326 320 318 320 319 323 329 336 334 305 227 202 195 199 200 202 201 193 181 185 188 194 195 198 195 196 197 195 196 202 199 205 202 202
Height
5754 5753 5751 5749 5745 5741 5737 5732 5728 5723 5717 5711 5704 5696 5687 5677 5666 5654 5642 5627 5611 5597 5583 5570 5560 5555 5549 5541 5534 5526 5518 5511 5506 5506 5507 5524 5548 5577 5600 5627 5652 5672 5690
5743 5743 5741 5738 5734 5730 5726 5721 5717 5711 5705 5699 5692 5684 5675 5665 5653 5641 5629 5612 5597 5585 5573 5561 5552 5547 5542 5535 5529 5522 5514 5507 5501 5498 5503 5522 5548 5569 5592 5618 5641 5661 5678
5733 5732 5730 5727 5723 5720 5715 5710 5705 5700 5694 5687 5680 5671 5663 5653 5642 5629 5615 5600 5585 5574 5562 5552 5545 5541 5536 5530 5524 5518 5513 5506 5499 5499 5507 5521 5546 5567 5587 5610 5631 5648 5667
5722 5721 5719 5716 5713 5708 5703 5699 5693 5688 5682 5675 5667 5659 5650 5641 5630 5618 5604 5588 5575 5564 5553 5543 5538 5534 5530 5524 5518 5514 5510 5508 5502 5504 5510 5525 5543 5562 5584 5607 5625 5642 5658
5710 5710 5707 5705 5701 5697 5692 5687 5682 5676 5670 5663 5655 5647 5638 5629 5619 5607 5592 5578 5567 5555 5544 5535 5532 5528 5524 5519 5513 5510 5507 5506 5507 5515 5522 5535 5546 5564 5586 5608 5622 5639 5651
5699 5697 5696 5693 5689 5685 5681 5676 5670 5665 5658 5651 5644 5636 5628 5618 5606 5594 5579 5567 5557 5546 5536 5527 5525 5522 5520 5515 5510 5508 5507 5508 5512 5521 5526 5535 5548 5564 5580 5596 5613 5628 5645
5687 5686 5684 5681 5678 5674 5670 5664 5659 5654 5647 5641 5633 5625 5617 5605 5594 5581 5567 5555 5545 5535 5527 5519 5518 5517 5516 5513 5509 5509 5509 5511 5516 5521 5528 5538 5548 5562 5577 5593 5609 5624 5644
5675 5674 5672 5670 5666 5663 5659 5654 5649 5643 5637 5630 5622 5614 5605 5593 5581 5568 5555 5543 5534 5523 5517 5511 5510 5511 5511 5511 5509 5509 5513 5515 5519 5524 5530 5539 5548 5562 5577 5597 5617 5626 5642
5663 5662 5661 5658 5655 5653 5648 5643 5638 5633 5627 5619 5612 5603 5594 5582 5568 5555 5542 5532 5521 5512 5505 5500 5501 5505 5505 5506 5508 5508 5511 5513 5517 5526 5530 5540 5548 5564 5577 5593 5605 5622 5638
5651 5651 5650 5648 5644 5641 5637 5632 5627 5623 5616 5609 5601 5593 5582 5570 5556 5543 5530 5519 5508 5500 5492 5489 5493 5497 5499 5501 5504 5507 5509 5513 5513 5520 5531 5541 5552 5565 5580 5595 5609 5624 5639
5640 5640 5638 5636 5633 5629 5625 5621 5617 5611 5605 5599 5592 5582 5571 5558 5544 5530 5519 5506 5495 5486 5475 5476 5484 5490 5494 5495 5498 5503 5505 5510 5517 5523 5529 5541 5551 5563 5579 5593 5608 5624 5641
5628 5626 5625 5624 5621 5618 5614 5611 5606 5600 5596 5589 5582 5571 5558 5546 5531 5519 5507 5494 5483 5470 5464 5469 5477 5483 5488 5492 5495 5499 5504 5509 5515 5522 5531 5541 5552 5564 5577 5591 5608 5625 5639
5615 5614 5613 5612 5610 5607 5604 5600 5595 5591 5586 5579 5571 5561 5548 5535 5520 5508 5496 5486 5474 5463 5461 5466 5473 5478 5482 5486 5491 5495 5500 5509 5516 5523 5531 5539 5549 5560 5573 5587 5603 5618 5634
5601 5602 5602 5601 5599 5596 5592 5589 5586 5581 5576 5569 5561 5550 5538 5524 5511 5499 5489 5478 5467 5461 5462 5466 5471 5475 5477 5483 5486 5491 5498 5507 5515 5523 5530 5535 5544 5557 5570 5587 5603 5617 5632
5592 5591 5590 5589 5587 5585 5582 5579 5575 5570 5565 5559 5551 5540 5529 5514 5502 5493 5484 5473 5463 5460 5461 5466 5470 5474 5475 5479 5483 5488 5494 5504 5513 5520 5529 5537 5548 5559 5571 5586 5601 5617 5630
5580 5579 5578 5578 5576 5574 5571 5567 5563 5560 5555 5548 5540 5530 5518 5506 5495 5485 5477 5466 5458 5456 5460 5464 5468 5472 5475 5478 5482 5487 5493 5502 5512 5519 5527 5537 5549 5560 5573 5586 5601 5616 5629
5568 5567 5566 5566 5564 5562 5560 5557 5552 5548 5544 5538 5529 5518 5507 5496 5486 5478 5471 5461 5453 5452 5457 5461 5466 5470 5473 5475 5479 5485 5492 5500 5510 5520 5529 5539 5551 5561 5571 5585 5599 5613 5626
5556 5555 5555 5554 5553 5552 5548 5546 5544 5539 5532 5525 5518 5509 5497 5487 5479 5472 5464 5456 5449 5449 5454 5458 5463 5466 5470 5472 5477 5485 5492 5500 5510 5519 5529 5539 5549 5558 5571 5586 5600 5612 5625
5544 5544 5543 5542 5542 5540 5538 5536 5534 5530 5524 5515 5504 5495 5486 5478 5471 5463 5455 5449 5444 5445 5450 5455 5460 5465 5467 5470 5475 5482 5491 5498 5508 5518 5529 5539 5546 5559 5571 5585 5596 5609 5624
5533 5533 5532 5532 5531 5530 5529 5527 5524 5519 5512 5505 5496 5485 5475 5468 5463 5453 5445 5440 5436 5437 5444 5450 5455 5460 5465 5468 5473 5480 5490 5498 5506 5516 5525 5534 5544 5557 5570 5581 5594 5604 5619
5522 5522 5522 5522 5521 5520 5519 5517 5513 5508 5501 5493 5483 5473 5466 5460 5453 5443 5434 5429 5427 5429 5436 5444 5451 5455 5460 5464 5470 5478 5486 5494 5503 5514 5522 5534 5543 5555 5568 5579 5589 5600 5615
5511 5512 5512 5512 5512 5512 5511 5508 5503 5497 5490 5480 5470 5463 5457 5451 5443 5433 5423 5417 5417 5421 5429 5436 5444 5450 5455 5460 5466 5474 5483 5490 5498 5510 5520 5529 5542 5553 5563 5573 5585 5596 5608
5501 5502 5503 5502 5503 5504 5501 5498 5493 5486 5478 5468 5460 5453 5447 5441 5432 5423 5412 5407 5408 5413 5423 5431 5438 5446 5451 5455 5462 5470 5478 5487 5497 5506 5516 5526 5536 5547 5560 5574 5585 5596 5605
5492 5494 5494 5494 5495 5494 5491 5487 5482 5475 5466 5457 5449 5443 5437 5431 5421 5412 5402 5400 5401 5408 5417 5426 5434 5441 5447 5451 5458 5466 5474 5484 5494 5503 5513 5523 5532 5543 5555 5567 5578 5587 5599
5485 5486 5486 5487 5487 5485 5482 5477 5471 5465 5455 5446 5440 5435 5430 5421 5409 5401 5393 5392 5394 5402 5411 5420 5429 5436 5441 5447 5454 5463 5471 5481 5491 5499 5509 5520 5528 5540 5552 5562 5572 5581 5593
5478 5478 5480 5481 5479 5477 5474 5468 5462 5453 5443 5436 5431 5426 5420 5410 5398 5390 5384 5384 5387 5396 5405 5415 5424 5432 5438 5443 5451 5459 5467 5477 5486 5497 5506 5515 5525 5536 5546 5555 5565 5576 5587